Location: ??????
(38.0131°N, 23.7723°E)
Time: 21:05:57
(UTC+00:00)

METEOR 2-5 DEB - Pass Details

Date: 17 August 2022
Orbit: 809 x 848 km, 81.2° (Epoch: 04 October)

Event Time Altitude Azimuth Distance (km) Brightness Sun altitude
Rises 18:51:41 0° 355° (N) 3,350 ? -17.8°
Reaches altitude 10° 18:54:08 10° 359° (N) 2,410 ? -18.2°
Maximum altitude 18:59:31 60° 79° (E) 926 ? -19.1°
Enters shadow 19:01:37 36° 143° (SE) 1,272 ? -19.4°
